Zurück zum Katalog

JILIN-1 GAOFEN 07A 02 XING

AktivWissenschaftSSO
NORAD 68691·PAYLOAD·🇨🇳 China
Dieser Satellitenname wurde noch nicht durch offizielle Quellen bestätigt.

Gestartet Apr 14, 2026 von Jiuquan Satellite Launch Center

Loading…

Nächste Überflüge (nächste 24 Stunden)

TLE

AktuellSource: Space-Track

Epoche: Sep 14, 2026, 13:01 UTC

1 68691U 26080A   26257.54238157  .00003910  00000-0  25235-3 0  9996
2 68691  97.6557 332.8850 0014828 124.6252 235.6377 15.08777441 23131

Verfolge JILIN-1 GAOFEN 07A 02 XING in Echtzeit mit AllMySat

Download on the App Store